Simultaneous Nadir Overpasses (SNOs) Predictions

Prediction of SNOs between NOAA-21 and AQUA Satellite Orbit:

Table of predicted SNOs for the next 14.0 days since TLE Epoch: 11/14/2025
Index Date (NOAA-21) Time (NOAA-21) Lat,Lon (NOAA-21) SZA (NOAA-21 ) Date (AQUA) Time (AQUA) Lat,Lon (AQUA) SZA (AQUA ) Distance(km) Time Diff (sec)
1 11/16/2025 18:53:02 -81.25, 14.40 75.81 11/16/2025 18:52:53 -81.25, 14.52 75.82 1.99 9
2 11/19/2025 03:33:17 81.25, 64.52 104.74 11/19/2025 03:33:36 81.26, 64.52 104.74 0.78 19
3 11/19/2025 04:24:02 -81.25,-128.09 75.26 11/19/2025 04:22:54 -81.25,-127.98 75.24 2.00 68
4 11/21/2025 12:13:33 -81.25, 114.31 74.70 11/21/2025 12:14:19 -81.25, 114.25 74.72 0.96 46
5 11/21/2025 13:04:17 81.25, -78.10 105.28 11/21/2025 13:03:36 81.24, -78.17 105.31 1.30 41
6 11/23/2025 20:53:48 81.25, 164.18 105.83 11/23/2025 20:54:59 81.25, 164.26 105.78 1.35 71
7 11/23/2025 21:44:33 -81.25, -28.34 74.19 11/23/2025 21:44:17 -81.24, -28.24 74.20 1.88 16
8 11/26/2025 06:24:47 81.25, 21.80 106.27 11/26/2025 06:24:55 81.26, 21.96 106.25 3.02 8
9 11/28/2025 15:05:03 -81.25, 71.49 73.26 11/28/2025 15:05:34 -81.24, 71.54 73.29 1.28 31



Historial Predications of SNOs between NOAA-21 and AQUA
